Location: Newark
(41.5333°N, 14.5500°E)
Time: 13:53:26
(UTC+00:00)

Hubble Space Telescope - Visible Passes

Search period start: 24 January 2020 00:00
Search period end: 03 February 2020 00:00
Orbit: 536 x 540 km, 28.5° (Epoch: 23 January)

Date Brightness Start Highest point End Pass type
(mag) Time Alt. Az. Time Alt. Az. Time Alt. Az.
30 Jan 3.7 05:40:07 10° S 05:40:56 10° S 05:41:46 10° SSE visible
31 Jan 3.5 05:28:45 10° SSW 05:30:10 11° S 05:31:35 10° SSE visible
01 Feb 3.4 05:17:41 10° SSW 05:19:25 12° S 05:21:08 10° SSE visible
02 Feb 3.3 05:06:46 10° SSW 05:08:39 13° S 05:10:33 10° SSE visible
